[[{"header":{"parameterUnit":"m.s-1","parameterCategory":1,"la1":30.2991,"la2":30.254,"lo1":-89.0895,"lo2":-89.0444,"dy":0.0017,"dx":0.0017,"nx":28,"ny":28,"refTime":"2024-02-14T09:00:00:Z","depth":0,"parameterNumber":2,"parameterNumberName":"U-component_of_WINDS"},"data":[0,0,0,0,0,0,0,0,0,0,0,0,0,0,0,0,0,0,0,0,0,0,0,0,0,0,0,0,0,0,0,0,0,0,0,0,0,0,0,0,0,0,0,0,0,0,0,0,0,0,0,0,0,0,0,0,0,0,1.4905,1.4906,0,1.4939,1.494,1.494,1.494,1.4939,1.4939,1.4938,1.4972,1.4973,1.4974,0,0,0,0,0,0,0,0,0,0,0,0,0,1.4839,1.484,1.4905,1.4906,1.4906,1.4939,1.494,1.494,1.494,1.4939,1.4938,1.4938,1.4971,1.4973,1.4974,0,0,0,0,0,0,0,0,0,0,0,0,0,1.4869,1.484,1.4905,1.491,1.4911,1.4939,1.494,1.494,1.494,1.4939,1.4938,1.4938,1.4971,1.4973,1.4975,1.5,0,0,1.4981,1.4981,0,0,0,0,0,0,0,0,1.4868,1.4872,1.4909,1.491,1.4911,1.4934,1.4928,1.496,1.494,1.4929,1.4938,1.4937,1.496,1.4963,1.497,1.5002,1.5003,1.4981,1.4982,1.4983,1.4983,0,0,0,0,0,0,0,1.4866,1.487,1.4919,1.4909,1.491,1.491,1.4913,1.4934,1.4948,1.493,1.493,1.4934,1.496,1.4969,1.4971,1.5004,1.4981,1.4983,1.4984,1.4984,1.5057,1.5058,0,0,0,0,0,0,1.4863,1.4869,1.4918,1.492,1.4887,1.4912,1.4916,1.4927,1.4947,1.495,1.4934,1.4934,1.4965,1.4969,1.4972,1.5003,1.4983,1.4985,1.4986,1.5056,1.5057,1.5058,0,0,0,0,0,0,1.4861,1.4867,1.4916,1.4894,1.49,1.4913,1.4927,1.4928,1.4937,1.4951,1.4953,1.494,1.4965,1.497,1.4993,1.5004,1.4986,1.4987,1.5055,1.5056,1.5057,1.5065,0,0,0,0,0,0,1.4859,1.4867,1.4877,1.4894,1.4902,1.4937,1.4927,1.493,1.494,1.494,1.4957,1.496,1.4965,1.499,1.4995,1.5006,1.4989,1.5054,1.5056,1.5057,1.5063,1.5066,1.5068,0,0,0,0,0,1.4857,1.4877,1.4877,1.4883,1.4915,1.4938,1.4942,1.4948,1.4941,1.4951,1.496,1.4959,1.5002,1.4993,1.4998,1.501,1.5054,1.5055,1.5057,1.5062,1.5065,1.5068,0,0,0,0,0,0,1.486,1.488,1.488,1.4907,1.4921,1.4937,1.495,1.4951,1.4966,1.4965,1.4972,1.4976,1.4999,1.5007,1.4996,1.5036,1.5027,1.503,1.5029,1.5032,1.5034,1.5032,1.4991,0,0,0,0,0,1.4864,1.4882,1.4898,1.492,1.4927,1.4937,1.4947,1.4951,1.4965,1.4971,1.4982,1.4995,1.5012,1.5023,1.5039,1.5065,1.5068,1.5076,1.5078,1.508,1.5082,1.5095,1.5099,1.5063,1.5063,1.5063,0,0,1.4872,1.4885,1.4896,1.4921,1.4932,1.4949,1.4942,1.4961,1.4973,1.4974,1.4997,1.5005,1.502,1.5045,1.5057,1.5053,1.5093,1.5082,1.5083,1.5084,1.5097,1.5101,1.5104,1.5064,1.5064,1.5064,0,0,1.4896,1.4908,1.4927,1.4938,1.4955,1.4962,1.4967,1.4984,1.4989,1.5012,1.5013,1.5028,1.5056,1.5067,1.5076,1.5104,1.5103,1.5109,1.512,1.5133,1.5136,1.5138,1.5147,1.515,1.5111,1.5111,1.5111,0,1.4903,1.493,1.4937,1.4955,1.4966,1.4967,1.4987,1.4997,1.5018,1.5025,1.5021,1.5056,1.5067,1.5094,1.51,1.5108,1.5113,1.5106,1.5135,1.5138,1.514,1.5148,1.5152,1.5111,1.5111,1.5111,1.5111,0,1.4938,1.4956,1.497,1.4991,1.5003,1.5022,1.5031,1.5042,1.5045,1.5052,1.5075,1.5088,1.5106,1.5113,1.5115,1.514,1.5137,1.5134,1.5125,1.5144,1.5152,1.5155,1.5112,1.5112,1.5112,1.5112,0,0,1.4964,1.4988,1.4993,1.5002,1.5021,1.5035,1.5054,1.5072,1.5081,1.5096,1.5111,1.5135,1.5132,1.5142,1.5146,1.5158,1.5177,1.5153,1.5154,1.5156,1.5204,1.5206,1.5209,1.5177,1.5178,1.5178,1.5202,0,1.4989,1.5023,1.5029,1.5058,1.5074,1.5076,1.5092,1.5105,1.5112,1.5127,1.5134,1.5151,1.5146,1.5153,1.5164,1.5173,1.5187,1.5171,1.5191,1.5191,1.5186,1.5214,1.5216,1.5238,1.5206,1.5206,1.5207,0,1.5022,1.5038,1.5068,1.5084,1.5091,1.5106,1.5123,1.5137,1.5151,1.5156,1.5167,1.517,1.5188,1.5179,1.5205,1.5194,1.5202,1.5207,1.5208,1.521,1.5199,1.5215,1.5245,1.5248,1.5212,1.5211,1.5211,0,1.5037,1.5066,1.5087,1.5095,1.5115,1.5125,1.5133,1.5147,1.5157,1.5172,1.5179,1.5195,1.5204,1.5217,1.5223,1.5216,1.5248,1.5239,1.5251,1.5251,1.5257,1.5256,1.5288,1.5264,1.5264,1.5264,1.5264,0,1.5064,1.5082,1.5094,1.5108,1.5128,1.5135,1.5155,1.5163,1.5175,1.519,1.5192,1.5206,1.5214,1.5228,1.5233,1.5253,1.5257,1.5261,1.5261,1.526,1.5259,1.5265,1.5263,1.5264,1.5264,1.5264,1.5264,0,1.5083,1.5093,1.5116,1.5133,1.5137,1.5151,1.5165,1.5178,1.5185,1.5203,1.5208,1.5219,1.5236,1.5244,1.5265,1.5268,1.529,1.5291,1.5285,1.5286,1.5296,1.5295,1.5332,1.5337,1.531,1.5311,1.5311,0,1.5099,1.5113,1.5131,1.5141,1.515,1.5166,1.5177,1.5184,1.5195,1.5212,1.5223,1.524,1.5254,1.5281,1.529,1.5306,1.5306,1.5318,1.5309,1.5306,1.5305,1.5304,1.5305,1.532,1.532,1.532,1.532,0,1.5126,1.513,1.5145,1.5162,1.5175,1.5189,1.5202,1.521,1.5219,1.5231,1.5249,1.526,1.5281,1.5297,1.5314,1.5322,1.5322,1.5323,1.5327,1.5325,1.5321,1.5322,1.5289,1.5322,1.5322,1.5322,1.5322,1.5322,1.5144,1.5156,1.5171,1.5188,1.5198,1.5211,1.5223,1.5232,1.5247,1.5265,1.5269,1.5287,1.53,1.5322,1.5331,1.5345,1.5342,1.5347,1.5348,1.5349,1.5349,1.5319,1.5348,1.5348,1.5348,1.5348,1.5348,0,1.517,1.5179,1.5195,1.5214,1.5227,1.5227,1.5241,1.5252,1.5268,1.5281,1.5295,1.5315,1.5331,1.5342,1.5358,1.5367,1.5367,1.537,1.5369,1.5371,1.5352,1.5347,1.537,1.537,1.537,1.537,1.537,1.537,1.5185,1.5206,1.5211,1.5237,1.5246,1.5265,1.5273,1.5284,1.5294,1.5316,1.5329,1.5337,1.5348,1.5365,1.538,1.5382,1.5388,1.5391,1.5394,1.5375,1.5373,1.537,1.5366,1.5392,1.5392,1.5412,1.5412,1.5412]},{"header":{"parameterUnit":"m.s-1","parameterCategory":1,"la1":30.2991,"la2":30.254,"lo1":-89.0895,"lo2":-89.0444,"dy":0.0017,"dx":0.0017,"nx":28,"ny":28,"refTime":"2024-02-14T09:00:00:Z","depth":0,"parameterNumber":3,"parameterNumberName":"V-component_of_WINDS"},"data":[0,0,0,0,0,0,0,0,0,0,0,0,0,0,0,0,0,0,0,0,0,0,0,0,0,0,0,0,0,0,0,0,0,0,0,0,0,0,0,0,0,0,0,0,0,0,0,0,0,0,0,0,0,0,0,0,0,0,-0.038,-0.038,0,-0.0346,-0.0346,-0.0345,-0.0335,-0.0335,-0.0335,-0.0335,-0.03,-0.0299,-0.0298,0,0,0,0,0,0,0,0,0,0,0,0,0,-0.0436,-0.0435,-0.038,-0.038,-0.0379,-0.0346,-0.0346,-0.0345,-0.0335,-0.0335,-0.0335,-0.0335,-0.0301,-0.03,-0.0298,0,0,0,0,0,0,0,0,0,0,0,0,0,-0.0408,-0.0435,-0.038,-0.037,-0.0369,-0.0346,-0.0346,-0.0345,-0.0335,-0.0335,-0.0335,-0.0335,-0.0301,-0.03,-0.0298,-0.0283,0,0,-0.0293,-0.0292,0,0,0,0,0,0,0,0,-0.041,-0.0406,-0.0372,-0.0371,-0.0369,-0.0345,-0.0353,-0.0324,-0.0335,-0.0348,-0.0335,-0.0336,-0.0315,-0.0312,-0.0305,-0.0282,-0.028,-0.0293,-0.0292,-0.0291,-0.0291,0,0,0,0,0,0,0,-0.0412,-0.0407,-0.0367,-0.0372,-0.037,-0.0367,-0.0364,-0.0347,-0.033,-0.0347,-0.0346,-0.0342,-0.0314,-0.0307,-0.0305,-0.028,-0.0293,-0.0292,-0.0291,-0.029,-0.0242,-0.0242,0,0,0,0,0,0,-0.0415,-0.0409,-0.0368,-0.0366,-0.0391,-0.0366,-0.0362,-0.0353,-0.0331,-0.0327,-0.0342,-0.0341,-0.031,-0.0306,-0.0303,-0.0284,-0.0291,-0.029,-0.0289,-0.0242,-0.0242,-0.0242,0,0,0,0,0,0,-0.0416,-0.0412,-0.0369,-0.0387,-0.0382,-0.0365,-0.0354,-0.0352,-0.0344,-0.0327,-0.0324,-0.0337,-0.031,-0.0306,-0.0288,-0.0283,-0.0289,-0.0288,-0.0243,-0.0242,-0.0242,-0.0247,0,0,0,0,0,0,-0.0418,-0.0412,-0.0406,-0.0387,-0.0381,-0.0355,-0.0354,-0.0351,-0.0342,-0.0341,-0.0322,-0.0319,-0.031,-0.0291,-0.0287,-0.0281,-0.0286,-0.0243,-0.0242,-0.0242,-0.0247,-0.0246,-0.0246,0,0,0,0,0,-0.042,-0.0409,-0.0406,-0.0401,-0.0373,-0.0355,-0.0351,-0.034,-0.0341,-0.0335,-0.0324,-0.032,-0.0284,-0.0289,-0.0284,-0.0278,-0.0243,-0.0243,-0.0242,-0.0247,-0.0246,-0.0246,0,0,0,0,0,0,-0.0428,-0.0406,-0.0403,-0.0385,-0.0372,-0.0353,-0.0345,-0.034,-0.0326,-0.0326,-0.0314,-0.0309,-0.0293,-0.0284,-0.029,-0.0263,-0.0264,-0.0262,-0.0269,-0.0268,-0.0268,-0.027,-0.0285,0,0,0,0,0,-0.0428,-0.0414,-0.0396,-0.0382,-0.0376,-0.0362,-0.0353,-0.0346,-0.0332,-0.0326,-0.0314,-0.03,-0.0286,-0.0277,-0.0263,-0.0246,-0.0241,-0.0239,-0.0239,-0.0238,-0.0237,-0.0227,-0.0226,-0.0239,-0.0239,-0.0239,0,0,-0.0427,-0.0413,-0.0406,-0.0384,-0.0372,-0.0359,-0.0357,-0.0343,-0.0333,-0.0324,-0.0307,-0.0297,-0.0281,-0.0264,-0.0256,-0.0256,-0.0232,-0.0237,-0.0237,-0.0236,-0.0227,-0.0225,-0.0224,-0.0239,-0.0239,-0.0239,0,0,-0.0418,-0.0407,-0.0394,-0.0383,-0.0366,-0.0357,-0.0354,-0.0335,-0.0329,-0.0311,-0.0305,-0.0293,-0.0268,-0.0257,-0.0248,-0.0236,-0.0232,-0.0232,-0.023,-0.022,-0.0219,-0.0218,-0.0214,-0.0212,-0.0231,-0.0231,-0.0231,0,-0.0419,-0.0399,-0.0388,-0.0374,-0.0365,-0.0356,-0.0343,-0.0333,-0.0313,-0.0306,-0.0307,-0.0276,-0.0265,-0.0245,-0.0242,-0.0235,-0.0231,-0.0234,-0.022,-0.0219,-0.0218,-0.0214,-0.0212,-0.0231,-0.0231,-0.0231,-0.0231,0,-0.0401,-0.0387,-0.0378,-0.0359,-0.0349,-0.0335,-0.0322,-0.0313,-0.0307,-0.0298,-0.0281,-0.0267,-0.025,-0.0245,-0.0239,-0.0224,-0.0224,-0.0223,-0.0224,-0.0217,-0.0213,-0.0211,-0.0231,-0.0231,-0.0231,-0.0231,0,0,-0.0396,-0.0371,-0.0368,-0.0359,-0.034,-0.0329,-0.0315,-0.0299,-0.0291,-0.0277,-0.0266,-0.0246,-0.0244,-0.0234,-0.0227,-0.0219,-0.021,-0.0218,-0.0217,-0.0217,-0.0193,-0.0194,-0.0192,-0.0207,-0.0207,-0.0206,-0.0194,0,-0.0385,-0.036,-0.035,-0.033,-0.0317,-0.0309,-0.0297,-0.0284,-0.0275,-0.0263,-0.0253,-0.0239,-0.0238,-0.0232,-0.0224,-0.0213,-0.0205,-0.0214,-0.0196,-0.0195,-0.02,-0.019,-0.0191,-0.018,-0.0192,-0.0192,-0.0192,0,-0.0369,-0.0355,-0.0333,-0.0316,-0.031,-0.03,-0.0284,-0.0272,-0.0257,-0.0251,-0.0241,-0.0234,-0.0219,-0.0221,-0.0202,-0.0208,-0.02,-0.0194,-0.0193,-0.0191,-0.0193,-0.0187,-0.0177,-0.0175,-0.0189,-0.0189,-0.019,0,-0.0367,-0.0343,-0.0327,-0.032,-0.0299,-0.0292,-0.0283,-0.0269,-0.0259,-0.0246,-0.024,-0.0224,-0.0216,-0.0205,-0.0194,-0.0196,-0.0175,-0.0176,-0.017,-0.017,-0.0165,-0.0166,-0.0153,-0.0161,-0.0161,-0.0161,-0.0161,0,-0.0356,-0.0343,-0.0326,-0.0316,-0.0302,-0.0291,-0.0277,-0.0267,-0.0255,-0.0243,-0.0235,-0.0225,-0.0211,-0.0199,-0.0191,-0.0176,-0.0172,-0.0167,-0.0165,-0.0167,-0.0168,-0.0162,-0.0162,-0.016,-0.0161,-0.0161,-0.0161,0,-0.0351,-0.034,-0.0322,-0.0304,-0.0299,-0.0289,-0.0274,-0.0264,-0.0255,-0.024,-0.0236,-0.0222,-0.0207,-0.0195,-0.0176,-0.017,-0.0154,-0.0152,-0.0159,-0.0158,-0.0152,-0.0153,-0.0135,-0.0132,-0.0142,-0.0142,-0.0142,0,-0.0345,-0.0335,-0.0316,-0.0307,-0.0298,-0.0285,-0.0276,-0.0264,-0.0255,-0.0237,-0.023,-0.0214,-0.0201,-0.0178,-0.0166,-0.0151,-0.0148,-0.0143,-0.0146,-0.0149,-0.0148,-0.0149,-0.0148,-0.0143,-0.0143,-0.0143,-0.0143,0,-0.0334,-0.0329,-0.0315,-0.03,-0.0289,-0.0276,-0.0264,-0.0257,-0.0244,-0.0234,-0.0218,-0.0208,-0.0188,-0.0173,-0.0157,-0.0148,-0.0143,-0.0142,-0.0139,-0.0142,-0.0146,-0.0144,-0.0158,-0.0142,-0.0142,-0.0142,-0.0142,-0.0142,-0.0328,-0.0319,-0.0304,-0.029,-0.0279,-0.0267,-0.0257,-0.0247,-0.0234,-0.0217,-0.0211,-0.0195,-0.0181,-0.0159,-0.015,-0.0137,-0.0137,-0.0134,-0.0133,-0.0132,-0.0132,-0.0149,-0.0134,-0.0134,-0.0134,-0.0134,-0.0134,0,-0.0317,-0.0307,-0.0294,-0.0276,-0.0265,-0.0261,-0.0247,-0.0238,-0.0224,-0.0211,-0.0198,-0.0181,-0.0166,-0.0153,-0.0138,-0.013,-0.0128,-0.0127,-0.0127,-0.0125,-0.0133,-0.0137,-0.0129,-0.0129,-0.0129,-0.0129,-0.0129,-0.0129,-0.031,-0.0294,-0.0287,-0.0266,-0.0256,-0.0241,-0.0233,-0.0222,-0.0212,-0.0192,-0.018,-0.0172,-0.0159,-0.0142,-0.0129,-0.0125,-0.012,-0.012,-0.0116,-0.0124,-0.0124,-0.0125,-0.0128,-0.0119,-0.0119,-0.0108,-0.0108,-0.0108]}]]